Printer-friendly version

IAU Minor Planet Center

Minor Planet Center

MPEC 2007-S11 : 2007 RQ133

The following Minor Planet Electronic Circular may be linked-to from your own Web pages, but must not otherwise be redistributed electronically.


Read MPEC 2007-S10 Read MPEC 2007-S12


M.P.E.C. 2007-S11                                Issued 2007 Sept. 17, 18:14 UT

     The Minor Planet Electronic Circulars contain information on unusual
         minor planets and routine data on comets.  They are published
   on behalf of Commission 20 of the International Astronomical Union by the
          Minor Planet Center, Smithsonian Astrophysical Observatory,
                          Cambridge, MA 02138, U.S.A.

             Prepared using the Tamkin Foundation Computer Network

                              MPC@CFA.HARVARD.EDU
          URL http://www.cfa.harvard.edu/iau/mpc.html  ISSN 1523-6714

                                  2007 RQ133

Observations:
     K07RD3Q* C2007 09 15.47500 03 14 29.90 +18 01 05.1          20.5 V ES011G96
     K07RD3Q  C2007 09 15.47711 03 14 29.72 +18 01 06.8          20.4 V ES011G96
     K07RD3Q  C2007 09 15.47921 03 14 29.58 +18 01 08.1          20.5 V ES011G96
     K07RD3Q  C2007 09 15.50576 03 14 27.60 +18 01 27.8          20.3 V ES011G96
     K07RD3Q  C2007 09 15.50752 03 14 27.45 +18 01 29.0          20.2 V ES011G96
     K07RD3Q  C2007 09 15.50926 03 14 27.34 +18 01 31.1          19.9 V ES011G96
     K07RD3Q  C2007 09 15.51102 03 14 27.16 +18 01 31.9          20.4 V ES011G96
     K07RD3Q  C2007 09 16.11674 03 13 43.89 +18 08 58.2                 ES011J95
     K07RD3Q  C2007 09 16.12093 03 13 43.71 +18 09 02.7                 ES011J95
     K07RD3Q  C2007 09 16.12513 03 13 43.36 +18 09 04.7          20.2 R ES011J95
     K07RD3Q  C2007 09 17.11842 03 12 29.06 +18 21 12.4                 ES011118
     K07RD3Q  C2007 09 17.13061 03 12 28.07 +18 21 21.3                 ES011118

Observer details:
118 Modra.  Observers S. Gajdos, J. Vilagi.  0.6-m f/5.5 reflector + CCD.
G96 Mt. Lemmon Survey.  Observer A. R. Gibbs.  Measurers E. C. Beshore,
    A. Boattini, G. J. Garradd, A. R. Gibbs, A. D. Grauer, R. E. Hill,
    R. A. Kowalski, S. M. Larson, R. H. McNaught.  1.5-m reflector + CCD.
J95 Great Shefford.  Observer P. Birtwhistle.  0.40-m f/6.0 Schmidt-Cassegrain
    + CCD.

Orbital elements:
2007 RQ133                                               Earth MOID = 0.1868 AU
Epoch 2007 Oct. 27.0 TT = JDT 2454400.5                 MPC
M  37.60631              (2000.0)            P               Q
n   0.26142690     Peri.  265.03076     +0.21551235     +0.97217952
a   2.4223443      Node    18.22099     -0.73851542     +0.22375110
e   0.6158644      Incl.   17.06680     -0.63886571     +0.06929947
P   3.77           H   18.4           G   0.15           U   9
Residuals in seconds of arc
070915 G96  0.2+  0.0     070915 G96  0.1-  0.3-    070916 J95  0.8+  0.8+
070915 G96  0.1-  0.1+    070915 G96  0.2+  0.5+    070916 J95  0.4+  0.3-
070915 G96  0.1+  0.2-    070915 G96  0.5-  0.0     070917 118  0.1+  0.1-
070915 G96  0.2+  0.2-    070916 J95  1.2-  0.6-    070917 118  0.2-  0.0

Ephemeris:
2007 RQ133               a,e,i = 2.42, 0.62, 17                  q = 0.9305
Date    TT    R. A. (2000) Decl.     Delta      r     Elong.  Phase     V
2007 09 17    03 12.64   +18 19.9    0.815    1.601   122.9    31.8    20.3
2007 09 27    02 57.31   +20 07.9    0.818    1.687   135.6    24.6    20.2
2007 10 07    02 37.65   +21 24.0    0.838    1.771   149.1    16.9    20.2
2007 10 17    02 16.00   +22 02.9    0.880    1.854   162.2     9.5    20.1
2007 10 27    01 55.40   +22 08.1    0.949    1.936   170.2     5.0    20.1
2007 11 06    01 38.29   +21 50.9    1.045    2.015   163.6     8.0    20.6
2007 11 16    01 25.92   +21 25.3    1.166    2.093   152.4    12.6    21.1
2007 11 26    01 18.47   +21 02.5    1.309    2.169   141.3    16.5    21.6
2007 12 06    01 15.41   +20 49.0    1.471    2.243   130.9    19.4    22.0

Timothy B. Spahr             (C) Copyright 2007 MPC           M.P.E.C. 2007-S11

Read MPEC 2007-S10 Read MPEC 2007-S12


Our Web policy. Index to the CBAT/MPC/ICQ pages.


Valid HTML 4.01!